Theta_e
349 349 347 344 344 346 349 351 352 353 353 353 351 348 346 344 343 345 348 351 353 353 354 354 353 355 354 353 356 355 353 354 354 355 352 351 351 350 351 350 349 353 355
349 349 349 348 348 349 351 354 355 356 356 354 352 348 347 346 345 344 346 350 353 353 353 354 353 353 353 355 357 357 354 353 355 358 357 358 353 350 353 353 352 352 354
348 349 349 349 349 350 352 354 356 356 357 355 353 350 349 349 349 349 350 352 354 354 354 354 354 354 355 351 351 355 356 354 354 356 359 361 359 356 355 357 355 352 351
345 347 348 349 349 350 351 353 355 356 357 357 353 352 351 351 350 350 350 351 352 355 355 355 356 355 354 351 353 353 356 356 355 355 354 357 358 362 361 355 357 359 359
346 344 346 346 346 348 349 351 354 356 356 356 356 354 353 351 351 351 352 354 354 355 355 354 355 355 355 352 355 358 359 359 359 357 357 358 359 359 360 363 358 356 356
349 347 345 344 345 345 347 348 351 355 356 356 357 356 354 354 351 352 353 353 352 352 355 356 355 355 354 355 357 360 362 363 361 360 361 361 360 359 358 361 360 359 357
352 351 349 348 346 345 345 346 348 353 355 355 355 356 356 356 355 355 354 354 351 351 351 355 358 356 356 358 360 362 363 363 363 364 362 360 358 357 359 357 357 360 356
353 353 352 350 348 347 346 346 347 350 354 354 355 354 355 355 355 354 354 353 352 351 351 355 357 358 359 360 361 362 362 363 364 364 364 362 360 357 357 359 361 364 360
350 352 352 351 350 348 347 347 347 348 352 353 354 355 355 355 353 353 354 355 355 353 353 357 359 359 360 364 364 363 362 363 362 364 363 363 361 358 359 360 361 361 364
348 348 349 351 350 350 349 348 348 349 352 353 354 354 355 355 355 355 355 355 355 356 358 359 361 363 363 364 366 365 363 363 363 361 360 361 361 361 362 361 362 361 361
352 348 348 349 350 350 350 350 349 349 352 353 353 354 356 356 357 356 357 357 358 359 362 362 362 363 364 365 365 363 362 363 363 363 362 363 361 363 361 360 360 362 362
354 352 349 349 348 348 348 349 349 350 352 354 354 355 357 357 357 359 359 361 361 361 360 359 357 355 354 353 353 353 353 353 353 353 353 354 353 356 358 359 359 362 361
358 356 352 348 348 348 348 349 350 351 353 355 356 357 361 362 362 359 355 351 351 350 348 345 346 345 343 341 341 340 340 340 341 341 342 344 345 350 349 352 356 359 359
358 357 356 356 354 353 353 353 353 355 358 358 359 356 354 350 344 341 340 340 338 340 340 339 338 338 338 338 339 339 339 339 339 340 341 342 344 346 348 351 352 353 357
358 359 358 358 357 356 355 353 352 352 351 350 348 344 342 340 339 337 334 332 335 334 333 334 334 334 334 333 332 332 332 333 334 335 336 337 338 338 339 341 345 350 353
356 355 357 357 355 355 353 351 349 348 345 342 339 336 334 333 329 332 331 331 331 331 331 332 332 332 333 331 330 329 330 331 331 333 335 336 337 338 338 339 340 340 343
355 353 353 354 351 349 347 343 338 337 334 331 331 330 330 330 330 329 330 329 329 329 329 330 330 332 333 330 327 326 327 331 333 333 335 337 338 338 340 340 339 340 340
356 355 354 349 344 340 336 333 331 330 329 328 327 328 325 323 326 328 328 326 327 328 327 327 326 327 328 323 322 323 327 329 333 335 337 338 339 341 340 339 340 341 343
355 352 348 343 339 336 333 329 329 328 327 326 325 327 327 327 327 327 326 326 327 327 327 326 326 326 324 320 320 321 325 328 328 330 334 338 334 332 330 331 336 341 343
351 348 343 340 336 333 331 329 328 328 328 327 326 325 326 327 326 326 326 326 327 325 325 324 323 322 323 321 318 319 322 324 325 327 330 330 329 324 325 325 333 340 343
348 343 340 338 334 331 331 330 328 329 328 326 327 327 326 326 325 324 325 326 325 325 324 325 325 325 322 322 319 318 321 322 324 325 326 327 324 322 325 328 334 338 341
343 342 340 337 334 332 332 330 330 328 328 327 326 325 324 322 323 324 324 324 325 325 324 324 323 323 323 321 320 319 320 321 324 325 324 323 322 323 324 326 332 338 338
344 342 340 337 333 331 331 331 329 328 327 326 325 324 323 323 323 323 323 323 323 322 322 322 322 322 321 321 320 321 321 320 323 322 322 323 322 323 324 324 327 331 334
344 341 338 335 332 332 331 329 328 328 327 326 325 324 323 323 322 321 321 321 321 321 321 321 321 321 320 319 319 320 321 322 321 322 321 322 322 321 322 324 322 323 324
340 338 335 333 332 331 329 328 327 326 325 325 324 322 322 322 321 320 321 320 318 318 319 319 319 319 319 317 317 317 318 319 320 320 319 319 319 321 321 321 321 320 319
338 337 334 333 331 331 328 326 325 325 324 324 323 322 321 321 321 321 318 315 315 314 314 314 314 316 316 316 316 318 318 319 320 320 319 319 318 318 320 321 320 319 319
Wind_Speed
19 24 24 25 25 24 23 23 22 20 19 18 17 18 18 17 17 17 16 15 14 14 13 13 12 11 11 11 10 10 10 11 10 13 14 13 13 8 5 6 9 5 6
19 21 25 26 26 26 25 23 22 21 22 19 18 16 15 15 15 15 16 17 17 16 16 15 14 13 13 12 11 10 12 13 11 10 15 7 10 1 9 9 7 8 6
20 21 23 28 28 28 27 26 25 25 24 21 17 16 13 13 13 16 16 16 17 18 19 18 18 16 15 16 14 13 12 14 13 10 7 6 8 15 12 9 6 7 10
20 20 23 29 31 31 30 28 26 26 25 24 22 22 19 18 18 16 15 15 16 17 16 18 18 19 18 17 15 14 14 13 16 15 15 13 15 7 7 13 12 13 12
22 23 25 31 31 30 30 29 28 27 26 26 26 24 23 21 19 17 15 15 15 16 16 18 18 19 18 18 17 14 14 15 16 17 17 16 17 16 13 12 13 16 15
23 22 27 28 31 31 31 30 28 27 27 27 26 27 25 24 20 19 18 16 15 14 15 15 17 17 17 17 16 16 16 16 17 17 17 17 17 19 18 10 15 17 20
22 22 22 22 30 34 35 32 31 29 28 28 27 28 30 26 24 22 19 17 16 14 14 14 15 15 16 15 15 16 18 17 18 19 20 21 23 21 22 22 19 14 23
22 24 25 27 31 33 34 33 32 30 27 28 28 27 25 23 21 21 20 18 17 15 12 13 14 14 14 16 17 18 20 20 21 21 20 23 27 25 20 21 18 13 15
18 22 22 27 31 32 34 34 31 28 28 28 26 26 22 21 19 17 15 16 16 16 15 13 14 15 15 15 17 21 22 23 23 24 25 25 26 25 23 20 23 17 13
15 17 18 22 29 31 32 30 28 27 24 22 21 19 17 17 16 16 16 15 14 13 13 12 14 15 16 17 18 19 21 21 22 23 23 25 26 25 23 25 24 22 22
8 13 16 21 25 25 26 27 26 24 20 19 18 16 15 14 13 15 14 13 13 12 12 13 14 15 15 14 15 17 19 20 22 23 23 26 26 25 27 27 26 25 23
2 3 6 14 16 20 22 24 24 22 20 19 17 16 15 13 12 12 9 6 6 5 5 8 9 9 12 14 16 19 21 22 23 25 24 26 26 25 26 28 27 25 25
4 6 8 8 12 14 17 15 17 16 19 17 18 16 12 11 11 7 7 7 3 1 2 6 8 11 12 14 15 17 20 22 23 25 26 27 26 27 28 27 28 27 26
7 7 8 11 12 15 18 22 20 17 11 19 13 14 12 11 12 8 4 4 2 2 3 6 7 10 12 13 15 14 17 20 22 24 25 26 27 28 28 29 28 29 29
7 9 11 12 15 17 16 23 28 23 14 17 15 12 14 11 11 7 6 6 3 3 3 6 7 9 11 11 14 16 18 20 22 24 25 26 27 29 31 31 31 29 26
8 9 12 12 14 18 19 21 27 22 15 22 12 11 9 7 12 7 9 7 4 3 6 6 8 10 11 15 16 17 18 21 23 23 23 24 27 28 30 31 34 35 34
13 13 14 13 17 19 21 24 20 21 20 11 15 12 13 4 10 9 6 5 3 6 9 8 9 10 10 13 18 18 17 20 21 23 24 24 23 26 27 28 30 33 36
15 17 15 19 20 21 22 21 22 17 25 18 16 7 14 8 6 6 6 6 9 10 8 7 7 8 8 18 20 20 16 18 19 21 22 22 22 23 22 25 28 27 28
17 18 22 22 20 20 19 21 21 21 23 20 15 9 11 8 4 5 7 9 8 8 6 6 7 10 12 22 23 22 17 18 20 20 19 18 21 23 28 28 26 26 26
24 25 25 25 23 18 14 10 12 25 20 13 13 11 10 7 5 5 7 8 8 8 7 8 9 10 13 18 23 23 16 18 19 18 18 19 20 33 31 25 23 21 17
26 26 23 21 19 17 14 12 14 18 19 14 12 12 10 7 6 9 9 7 8 9 10 9 7 11 15 19 26 23 19 21 20 19 21 22 29 33 30 22 20 19 17
27 26 24 21 20 18 17 14 16 18 17 14 13 12 9 8 9 9 9 9 8 9 9 9 10 12 15 19 25 26 23 22 19 20 20 23 28 26 24 21 16 14 13
25 25 24 22 18 16 15 16 16 15 15 14 14 13 11 10 9 9 9 8 8 9 10 13 13 13 16 19 23 23 23 24 19 19 24 24 24 22 19 21 13 3 3
23 24 23 21 19 16 15 16 17 16 16 16 15 13 11 11 9 8 8 8 9 10 12 13 15 14 16 22 23 22 21 21 24 22 25 25 23 24 22 18 20 18 18
23 23 21 20 19 18 18 17 18 18 17 16 14 13 11 10 10 9 8 10 9 9 10 10 11 13 15 17 20 19 20 19 18 19 23 27 27 23 26 26 25 20 20
23 21 21 22 21 20 19 17 18 18 18 16 13 11 10 9 8 9 11 10 8 7 6 7 8 9 12 16 19 18 19 18 16 16 19 20 24 24 23 20 20 21 21
Wind_Direction
187 185 189 190 192 194 196 199 200 202 200 205 208 215 223 228 232 234 234 235 239 243 250 256 258 261 266 276 275 270 274 291 300 303 301 311 288 276 270 288 287 281 265
186 188 189 192 197 196 201 204 207 202 203 206 210 213 221 228 232 235 237 239 239 244 247 253 259 264 274 276 281 274 280 283 289 292 309 306 306 155 271 295 272 280 247
191 190 194 197 199 202 202 205 209 208 207 208 205 207 219 223 223 229 234 238 240 242 245 248 253 264 268 273 273 270 269 282 292 284 276 305 313 328 307 260 273 278 266
194 192 196 202 204 203 203 207 210 210 210 207 209 209 214 224 229 232 236 238 237 241 245 248 252 258 262 269 267 267 265 273 282 288 278 271 283 295 300 296 273 256 266
196 194 199 200 204 204 203 205 208 211 212 211 212 215 224 232 236 237 239 242 246 244 246 247 251 255 255 256 258 262 266 272 274 283 290 288 280 259 265 291 294 289 278
198 203 200 194 200 203 205 206 208 211 212 213 215 217 224 229 236 234 239 244 247 246 245 249 246 244 245 250 256 266 266 264 271 270 275 276 282 292 288 278 281 284 286
200 200 200 197 200 202 204 206 207 212 211 212 216 220 225 228 235 240 243 251 251 248 249 244 246 246 246 254 259 264 265 266 262 267 271 278 279 278 277 282 282 285 284
202 203 198 200 200 203 204 205 206 209 210 212 216 222 226 228 237 242 244 248 248 254 260 258 258 259 256 259 262 262 263 262 262 260 260 271 274 273 262 272 275 282 285
213 211 208 201 199 199 201 204 206 206 207 209 212 217 220 225 232 241 243 250 254 257 256 259 260 262 266 266 268 271 274 271 267 265 263 255 265 267 264 256 253 250 273
223 220 210 202 202 199 198 199 201 203 205 204 209 213 213 219 223 229 240 245 252 255 260 257 264 266 271 274 273 274 277 277 275 271 267 263 264 268 273 267 263 257 249
233 212 201 201 200 196 192 191 193 194 197 198 200 205 203 204 211 221 224 239 251 257 264 269 269 275 279 281 283 280 280 278 279 276 272 270 269 267 266 264 256 252 247
170 216 216 179 190 188 187 182 185 183 186 184 181 195 190 189 198 213 211 218 229 245 264 274 281 289 292 292 289 287 286 284 282 281 281 278 278 275 268 266 264 252 250
149 159 168 180 182 152 149 152 159 181 161 164 166 170 168 155 145 152 152 143 135 162 265 278 297 297 295 296 292 290 290 288 286 284 282 279 278 275 272 271 268 258 250
151 149 150 143 137 142 148 145 135 124 142 127 130 125 130 132 120 117 96 83 62 321 316 309 314 308 308 305 300 298 297 294 290 287 284 282 278 276 276 270 263 264 259
157 150 147 139 136 128 133 126 108 116 136 115 124 126 130 128 110 120 113 68 15 359 355 344 334 324 320 311 323 312 307 300 291 287 284 281 278 277 276 275 275 278 266
152 144 125 132 136 140 127 108 108 112 122 110 107 107 84 81 93 79 60 81 31 360 21 1 350 332 324 319 323 317 306 300 292 287 286 285 286 283 278 272 270 267 266
155 146 139 138 122 115 112 104 101 112 107 100 101 90 79 49 64 76 76 64 46 29 25 10 357 331 325 320 320 313 307 301 300 293 289 288 289 290 286 283 279 273 265
155 146 136 128 120 118 112 115 121 127 116 108 100 103 87 69 61 68 71 50 41 35 22 9 345 342 340 341 347 333 323 312 306 304 299 298 298 295 295 294 285 281 277
146 140 132 126 124 126 133 135 144 142 111 102 94 104 92 83 74 72 65 54 50 44 36 28 18 9 5 1 1 353 340 326 321 316 307 312 314 313 309 307 295 280 272
140 138 142 133 130 130 133 133 109 102 90 103 116 102 103 111 115 94 75 68 68 61 55 47 29 18 10 0 9 4 343 329 325 326 327 327 325 324 326 310 295 285 256
142 139 132 125 125 130 140 139 134 112 115 118 129 128 114 124 120 92 78 83 72 65 50 38 33 26 16 7 6 8 357 344 331 333 334 333 330 336 331 316 291 278 259
142 142 131 136 143 152 145 140 123 121 129 135 118 118 129 115 95 91 84 75 70 56 50 33 27 19 8 358 355 5 3 353 343 342 337 334 339 344 351 344 313 284 255
144 142 141 138 142 146 145 137 130 128 130 129 127 124 115 108 102 92 82 76 71 59 45 41 33 19 16 8 0 359 1 2 359 0 3 356 356 358 3 19 20 66 123
145 143 140 141 146 149 144 138 141 142 141 140 138 134 124 113 101 92 84 80 73 69 57 47 37 22 21 12 4 360 1 5 11 10 12 10 11 20 26 30 48 64 80
145 144 144 145 143 143 144 148 151 149 147 143 140 138 128 117 109 93 99 94 81 77 60 47 29 19 18 2 359 4 1 2 5 18 22 20 14 18 25 35 48 60 71
145 148 149 148 150 152 150 151 154 154 149 147 146 142 137 133 120 123 106 97 102 79 56 30 17 1 347 355 2 4 9 9 18 29 25 24 26 26 26 35 47 56 62